CZ-4B DEB, 57397

Orbit data source: Space-Track

CZ-4B DEB, 57397 is space debris in SSO originally from a launch on Wed, 24 Oct 2018 UTC launched from the Taiyaun Space Center, China (TSC). Debris objects in space refer to the collection of defunct objects orbiting the Earth. Examples of debris include non-operational satellites, rocket bodies, and fragments generated from explosions, collisions, or faulty payload assembly.

Loading next visibility...
Identifier
57397, 2018-081Q
Orbit
SSO
Country
Flag of CNCN / PRC
Related business
Manufacturer
Unknown
Mission
Spacecraft
Bus & Motor
Unknown
Mass
Unknown
Launch date (UTC)
2018-10-24 (8 years ago)
Launch vehicle
Unknown
Launch site
Taiyaun Space Center, China (TSC)
Object type
Payload
Rocket body
Debris
Shape & HBR
Unknown shape, 0.1 m
Radar Cross Section
Small (<0.1 m²)

Expand to show TLE details & history
Last TLE update: 3 days ago

TLE from 3 days ago
0 CZ-4B DEB
1 57397U 18081Q   26124.53902234  .00002234  00000-0  58517-3 0  9992
2 57397  99.3699  47.9543 0194941   6.2104 354.1431 14.39771611160717
Epoch: 2026-05-04T12:56Z
TLE epoch observation values (Epoch: 2026-05-04T12:56:11.530Z)
Latitude
-0.00006°
Longitude
-8.5205°
Altitude
623.764 km
Speed
7.62 km/s
True Right ascension
03h 11m 49s
True Declination
0° 00' 00"
Sunlit
Object was in daylight at epoch
Visualization orbit readout
Latitude
Unknown
Longitude
Unknown
Altitude
Unknown
Speed
Unknown
Apparent Right ascension
Unknown
Apparent Declination
Unknown
Sunlit
N/A
Visualization observer readout
Local Sidereal Time
03:50:35
Azimuth
Unknown
Elevation
Unknown
Doppler factor
Unknown
Orbital elements
Apogee altitude
895.499 km
Perigee altitude
617.335 km
Semi-major axis
7,134.554 km
Eccentricity
0.01949
Inclination
99.3699°
RAAN
47.9543°
Arg. of periapsis
6.2104°
True anomaly
353.90949°
Mean anomaly
354.1431°
Eccentric anomaly
354.02687°
Mean motion
3.60158 °/min
Orbital period
99.96 mins
BSTAR
0.00058517
Loading maneuver chart data...
Computing Atmospheric mass density...
Loading historical data...
Loading historical data...
Loading historical data...
Loading historical data...
Loading historical data...
Loading historical data...
Loading historical data...

Documentation

Showing up to 5 results
|